PAGYPAYA

Guest
Details From PAGY - SKAGWAY
To PAYA - YAKUTAT
Flight Number -
Tags decoded
Created
Modified
Stats Distance 155 nm / 287 km
Max Altitude 0 ft / 0 m
Waypoints 4
Social Downloads 0
Likes 0
Share VATSIM

Download

Looking for another format? Having issues loading an existing format? Contact us
Advertisement - Login to hide

Notes

Requested: PAGY HNS FAKES PAYA

Route

PAGY HNS FAKES PAYA

ID Type Via Altitude Latitude Longitude Leg Dist Tot Dist Heading (true) Name
O PAGY APT - 0 ft / 0 m 59.46006˚ -135.31566˚ - 0 nm - SKAGWAY
HNS NDB - 0 ft / 0 m 59.21208˚ -135.43086˚ 15 nm 15 nm 193° / 193° HAINES NDB
FAKES FIX - 0 ft / 0 m 58.98241˚ -137.80800˚ 74 nm 89 nm 260° / 258° -
O PAYA APT - 0 ft / 0 m 59.50325˚ -139.66125˚ 64 nm 154 nm 300° / 298° YAKUTAT

Altitude Profile

Advertisement - Login to hide

PAGY

Details ICAO PAGY (SGY)
Name SKAGWAY
Region USA (Alaska)
Timezone America/Juneau (UTC-8.0)
Stats Elevation 44 ft / 13 m (AMSL)
Location 59.460062° -135.315661°
Runways 1
Magnetic Variation 19.210° E

METAR

PAGY 252253Z AUTO 20015KT 10SM BKN060 OVC090 12/05 A2984 RMK AO2 SLP105 T01220050 TSNO

Decode

TAF

PAGY 251722Z 2518/2618 21005KT P6SM -RA SCT025 OVC050 FM252000 21012KT P6SM -RA OVC050 FM260300 21020KT P6SM -SHRA OVC050 AMD LTD TO CLD VIS AND WIND

Decode

Departure Runways

ID Width Length Bearing (true) Bearing (mag) Surface Threshold Offset Overrun Length
02 75 ft / 23 m 3,542 ft / 1,080 m 43.94° 24.73° Asphalt 0 ft / 0 m 299 ft / 91 m
20 75 ft / 23 m 3,542 ft / 1,080 m 223.95° 204.74° Asphalt 0 ft / 0 m 299 ft / 91 m

PAYA

Details ICAO PAYA (YAK)
Name YAKUTAT
Region USA (Alaska)
Timezone America/Yakutat (UTC-8.0)
Stats Elevation 33 ft / 10 m (AMSL)
Location 59.503248° -139.661250°
Runways 2
Magnetic Variation 18.566° E

METAR

PAYA 252253Z AUTO 10008KT 7SM -RA FEW030 BKN038 OVC046 08/06 A2982 RMK AO2 SLP097 P0007 T00830056 TSNO

Decode

TAF

PAYA 251722Z 2518/2618 04007KT P6SM -RA SCT023 OVC035 TEMPO 2519/2523 11010KT BKN015 OVC030 FM260000 14008KT P6SM -SHRA SCT015 OVC025 FM260600 09003KT P6SM VCSH BKN040 OVC060 AMD LTD TO CLD VIS AND WIND

Decode

Destination Runways

ID Width Length Bearing (true) Bearing (mag) Surface Threshold Offset Overrun Length
02 150 ft / 46 m 6,460 ft / 1,969 m 44.92° 26.35° Concrete 1,388 ft / 423 m 0 ft / 0 m
11 150 ft / 46 m 7,727 ft / 2,355 m 135.05° 116.48° Asphalt 0 ft / 0 m 0 ft / 0 m
20 150 ft / 46 m 6,460 ft / 1,969 m 224.95° 206.38° Concrete 0 ft / 0 m 0 ft / 0 m
29 150 ft / 46 m 7,727 ft / 2,355 m 315.08° 296.51° Asphalt 0 ft / 0 m 0 ft / 0 m

Approach Navaids

Runway Type Ident Frequency Range Bearing (true) Bearing (mag) Slope Elevation
11 Localiser IYAK 111.10 MHz 18 nm / 33 km 135.08° 116.52° - 24 ft / 7 m (AMSL)
11 Glidescope IYAK 111.10 MHz 10 nm / 19 km 135.06° 116.50° 3.00° 31 ft / 9 m (AMSL)

Popular Alternatives